This demonstration page uses our WeatherBlox Daily Observations layout. Learn more.

Left ArrowRight Arrow

41.86663, -103.66717

Hourly Observations for November 13, 2020

Temp ( °F °C ) Dew Point ( °F °C ) Humidity (%) Winds ( mph kmh ) Pressure ( in mb ) Visibility ( mi km ) Precip ( " mm )
12:53 am 00:53 Clear 25 -3.9 10 -12.2 53 53 Calm 30.11 1020 10 16 0.00 0.00
1:53 am 01:53 Clear 23 -5 10 -12.2 57 57 E 8 13 30.10 1019 10 16 0.00 0.00
2:53 am 02:53 Clear 21 -6.1 11 -11.7 65 65 ESE 7 11 30.08 1019 10 16 0.00 0.00
3:53 am 03:53 Clear 19 -7.2 10 -12.2 68 68 E 7 11 30.06 1018 10 16 0.00 0.00
4:53 am 04:53 Clear 18 -7.8 10 -12.2 71 71 ESE 5 7 30.06 1018 10 16 0.00 0.00
5:53 am 05:53 Clear 19 -7.2 12 -11.1 74 74 E 5 7 30.04 1017 10 16 0.00 0.00
6:53 am 06:53 Sunny 23 -5 15 -9.4 72 72 ESE 3 6 30.03 1017 10 16 0.00 0.00
7:53 am 07:53 Sunny 23 -5 15 -9.4 72 72 ENE 3 6 30.04 1017 10 16 0.00 0.00
8:53 am 08:53 Sunny 38 3.3 16 -8.9 41 41 Calm 29.99 1016 10 16 0.00 0.00
9:53 am 09:53 Sunny 46 7.8 16 -8.9 30 30 Calm 29.93 1014 10 16 0.00 0.00
10:53 am 10:53 Sunny 56 13.3 11 -11.7 17 17 WSW 10 17 29.85 1011 10 16 0.00 0.00
11:53 am 11:53 Sunny 59 15 10 -12.2 14 14 W 23 37 29.80 1009 10 16 0.00 0.00
12:53 pm 12:53 Sunny 60 15.6 9 -12.8 13 13 W 17 28 29.75 1007 10 16 0.00 0.00
1:53 pm 13:53 Sunny 57 13.9 10 -12.2 15 15 NNW 6 9 29.73 1007 10 16 0.00 0.00
2:53 pm 14:53 Sunny 59 15 10 -12.2 14 14 NNE 8 13 29.70 1006 10 16 0.00 0.00
3:53 pm 15:53 Sunny 53 11.7 16 -8.9 23 23 ESE 3 6 29.71 1006 10 16 0.00 0.00
4:53 pm 16:53 Clear 49 9.4 14 -10 25 25 S 7 11 29.70 1006 10 16 0.00 0.00
5:53 pm 17:53 Clear 48 8.9 14 -10 25 25 SSE 5 7 29.67 1005 10 16 0.00 0.00
6:53 pm 18:53 Clear 41 5 16 -8.9 36 36 SE 3 6 29.65 1004 10 16 0.00 0.00
7:53 pm 19:53 Clear 40 4.4 18 -7.8 41 41 ESE 6 9 29.62 1003 10 16 0.00 0.00
8:53 pm 20:53 Clear 46 7.8 16 -8.9 30 30 SSE 8 13 29.54 1001 10 16 0.00 0.00
9:53 pm 21:53 Mostly Cloudy 41 5 18 -7.8 39 39 NNW 6 9 29.55 1001 10 16 0.00 0.00
10:53 pm 22:53 Clear 56 13.3 20 -6.7 24 24 WSW 26 43 29.47 998 10 16 0.00 0.00
11:53 pm 23:53 Clear 53 11.7 24 -4.4 32 32 W 13 20 29.49 999 10 16 0.00 0.00

Powered by AerisWeather